Time,TemperatureF,DewpointF,PressureIn,WindDirection,WindDirectionDegrees,WindSpeedMPH,WindSpeedGustMPH,Humidity,HourlyPrecipIn,Conditions,Clouds,dailyrainin,SoftwareType,DateUTC
2013-01-29 00:03:00,43.0,43.0,-100.00,ENE,60,4.0,7.0,99,-99.99,,,-99.99,,2013-01-29 05:03:00,
2013-01-29 00:12:00,42.0,42.0,-100.00,NE,40,3.0,5.0,99,-99.99,,,-99.99,,2013-01-29 05:12:00,
2013-01-29 00:21:00,42.0,42.0,-100.00,ENE,60,4.0,6.0,99,-99.99,,,-99.99,,2013-01-29 05:21:00,
2013-01-29 00:32:00,42.0,42.0,-100.00,ENE,75,3.0,6.0,99,-99.99,,,-99.99,,2013-01-29 05:32:00,
2013-01-29 00:42:00,42.0,42.0,-100.00,ENE,65,3.0,5.0,100,-99.99,,,-99.99,,2013-01-29 05:42:00,
2013-01-29 00:52:00,42.0,42.0,-100.00,East,80,3.0,5.0,99,-99.99,,,-99.99,,2013-01-29 05:52:00,
2013-01-29 01:02:00,42.0,42.0,-100.00,East,90,1.0,4.0,100,-99.99,,,-99.99,,2013-01-29 06:02:00,
2013-01-29 01:11:00,42.0,42.0,-100.00,East,90,2.0,3.0,99,-99.99,,,-99.99,,2013-01-29 06:11:00,
2013-01-29 01:21:00,41.0,41.0,-100.00,East,90,6.0,9.0,99,-99.99,,,-99.99,,2013-01-29 06:21:00,
2013-01-29 01:32:00,41.0,41.0,-100.00,ESE,115,4.0,8.0,100,-99.99,,,-99.99,,2013-01-29 06:32:00,
2013-01-29 01:42:00,40.0,40.0,-100.00,East,95,5.0,7.0,99,-99.99,,,-99.99,,2013-01-29 06:42:00,
2013-01-29 01:52:00,40.0,40.0,-100.00,ESE,110,3.0,8.0,99,-99.99,,,-99.99,,2013-01-29 06:52:00,
2013-01-29 02:02:00,39.0,39.0,-100.00,East,100,2.0,6.0,99,-99.99,,,-99.99,,2013-01-29 07:02:00,
2013-01-29 02:11:00,39.0,39.0,-100.00,ESE,110,4.0,7.0,99,-99.99,,,-99.99,,2013-01-29 07:11:00,
2013-01-29 02:21:00,39.0,39.0,-100.00,ESE,105,6.0,9.0,99,-99.99,,,-99.99,,2013-01-29 07:21:00,
2013-01-29 02:32:00,39.0,39.0,-100.00,ESE,105,6.0,10.0,99,-99.99,,,-99.99,,2013-01-29 07:32:00,
2013-01-29 02:42:00,39.0,39.0,-100.00,SE,125,4.0,9.0,100,-99.99,,,-99.99,,2013-01-29 07:42:00,
2013-01-29 02:52:00,38.0,38.0,-100.00,SE,130,2.0,7.0,99,-99.99,,,-99.99,,2013-01-29 07:52:00,
2013-01-29 03:02:00,38.0,38.0,-100.00,SE,130,2.0,7.0,99,-99.99,,,-99.99,,2013-01-29 08:02:00,
2013-01-29 03:11:00,38.0,38.0,-100.00,ESE,115,4.0,9.0,99,-99.99,,,-99.99,,2013-01-29 08:11:00,
2013-01-29 03:21:00,38.0,38.0,-100.00,ESE,120,2.0,6.0,99,-99.99,,,-99.99,,2013-01-29 08:21:00,
2013-01-29 03:32:00,38.0,38.0,-100.00,ESE,120,2.0,6.0,99,-99.99,,,-99.99,,2013-01-29 08:32:00,
2013-01-29 03:42:00,38.0,38.0,-100.00,East,95,2.0,5.0,99,-99.99,,,-99.99,,2013-01-29 08:42:00,
2013-01-29 03:52:00,38.0,38.0,-100.00,SE,125,4.0,6.0,99,-99.99,,,-99.99,,2013-01-29 08:52:00,
2013-01-29 04:02:00,39.0,38.0,-100.00,ESE,110,4.0,6.0,99,-99.99,,,-99.99,,2013-01-29 09:02:00,
2013-01-29 04:11:00,39.0,38.0,-100.00,ESE,110,4.0,6.0,99,-99.99,,,-99.99,,2013-01-29 09:11:00,
2013-01-29 04:21:00,39.0,39.0,-100.00,East,90,4.0,6.0,99,-99.99,,,-99.99,,2013-01-29 09:21:00,
2013-01-29 04:32:00,39.0,39.0,-100.00,ESE,105,4.0,6.0,99,-99.99,,,-99.99,,2013-01-29 09:32:00,
2013-01-29 04:42:00,39.0,39.0,-100.00,East,95,2.0,5.0,99,-99.99,,,-99.99,,2013-01-29 09:42:00,
2013-01-29 04:52:00,39.0,39.0,-100.00,East,100,3.0,4.0,99,-99.99,,,-99.99,,2013-01-29 09:52:00,
2013-01-29 05:01:00,39.0,39.0,-100.00,ESE,105,3.0,6.0,99,-99.99,,,-99.99,,2013-01-29 10:01:00,
2013-01-29 05:11:00,39.0,39.0,-100.00,NE,45,2.0,4.0,99,-99.99,,,-99.99,,2013-01-29 10:11:00,
2013-01-29 05:21:00,39.0,39.0,-100.00,NE,55,4.0,6.0,99,-99.99,,,-99.99,,2013-01-29 10:21:00,
2013-01-29 05:32:00,39.0,39.0,-100.00,ESE,115,2.0,6.0,100,-99.99,,,-99.99,,2013-01-29 10:32:00,
2013-01-29 05:41:00,39.0,39.0,-100.00,NNE,25,1.0,4.0,99,-99.99,,,-99.99,,2013-01-29 10:41:00,
2013-01-29 05:52:00,39.0,39.0,-100.00,NNE,25,1.0,4.0,99,-99.99,,,-99.99,,2013-01-29 10:52:00,
2013-01-29 06:02:00,38.0,38.0,-100.00,North,5,3.0,9.0,99,-99.99,,,-99.99,,2013-01-29 11:02:00,
2013-01-29 06:11:00,38.0,38.0,-100.00,NE,35,3.0,6.0,99,-99.99,,,-99.99,,2013-01-29 11:11:00,
2013-01-29 06:22:00,37.0,37.0,-100.00,East,80,6.0,7.0,100,-99.99,,,-99.99,,2013-01-29 11:22:00,
2013-01-29 06:32:00,37.0,37.0,-100.00,SE,130,2.0,5.0,99,-99.99,,,-99.99,,2013-01-29 11:32:00,
2013-01-29 06:42:00,37.0,37.0,-100.00,East,100,2.0,4.0,99,-99.99,,,-99.99,,2013-01-29 11:42:00,
2013-01-29 06:52:00,38.0,38.0,-100.00,ESE,110,2.0,4.0,99,-99.99,,,-99.99,,2013-01-29 11:52:00,
2013-01-29 07:03:00,38.0,38.0,-100.00,SE,135,2.0,6.0,99,-99.99,,,-99.99,,2013-01-29 12:03:00,
2013-01-29 07:12:00,39.0,38.0,-100.00,SSE,155,2.0,5.0,99,-99.99,,,-99.99,,2013-01-29 12:12:00,
2013-01-29 07:22:00,39.0,39.0,-100.00,SSE,160,1.0,4.0,99,-99.99,,,-99.99,,2013-01-29 12:22:00,
2013-01-29 07:33:00,39.0,39.0,-100.00,SSE,160,1.0,4.0,99,-99.99,,,-99.99,,2013-01-29 12:33:00,
2013-01-29 07:43:00,42.0,42.0,-100.00,South,180,4.0,6.0,99,-99.99,,,-99.99,,2013-01-29 12:43:00,
2013-01-29 07:52:00,44.0,44.0,-100.00,South,185,5.0,7.0,99,-99.99,,,-99.99,,2013-01-29 12:52:00,
2013-01-29 08:02:00,45.0,45.0,-100.00,South,185,6.0,7.0,99,-99.99,,,-99.99,,2013-01-29 13:02:00,
2013-01-29 08:12:00,48.0,47.0,-100.00,SSW,210,7.0,11.0,99,-99.99,,,-99.99,,2013-01-29 13:12:00,
2013-01-29 08:22:00,50.0,50.0,-100.00,SSW,210,7.0,10.0,100,-99.99,,,-99.99,,2013-01-29 13:22:00,
2013-01-29 08:32:00,51.0,51.0,-100.00,SSW,200,6.0,17.0,99,-99.99,,,-99.99,,2013-01-29 13:32:00,
2013-01-29 08:42:00,52.0,52.0,-100.00,SW,215,12.0,22.0,100,-99.99,,,-99.99,,2013-01-29 13:42:00,
2013-01-29 08:52:00,52.0,52.0,-100.00,SW,215,12.0,22.0,100,-99.99,,,-99.99,,2013-01-29 13:52:00,
2013-01-29 09:02:00,52.0,52.0,-100.00,SSW,210,10.0,19.0,99,-99.99,,,-99.99,,2013-01-29 14:02:00,
2013-01-29 09:12:00,52.0,52.0,-100.00,WSW,240,5.0,19.0,99,-99.99,,,-99.99,,2013-01-29 14:12:00,
2013-01-29 09:22:00,52.0,52.0,-100.00,WSW,250,9.0,14.0,99,-99.99,,,-99.99,,2013-01-29 14:22:00,
2013-01-29 09:33:00,52.0,52.0,-100.00,SW,235,7.0,15.0,99,-99.99,,,-99.99,,2013-01-29 14:33:00,
2013-01-29 09:43:00,52.0,52.0,-100.00,SW,215,8.0,14.0,99,-99.99,,,-99.99,,2013-01-29 14:43:00,
2013-01-29 09:52:00,52.0,52.0,-100.00,SSW,205,8.0,15.0,99,-99.99,,,-99.99,,2013-01-29 14:52:00,
2013-01-29 10:02:00,52.0,52.0,-100.00,SSW,205,6.0,16.0,99,-99.99,,,-99.99,,2013-01-29 15:02:00,
2013-01-29 10:12:00,53.0,53.0,-100.00,SW,215,11.0,19.0,99,-99.99,,,-99.99,,2013-01-29 15:12:00,
2013-01-29 10:22:00,53.0,53.0,-100.00,SW,220,9.0,16.0,99,-99.99,,,-99.99,,2013-01-29 15:22:00,
2013-01-29 10:33:00,53.0,53.0,-100.00,SSW,205,10.0,19.0,99,-99.99,,,-99.99,,2013-01-29 15:33:00,
2013-01-29 10:43:00,53.0,53.0,-100.00,SSW,210,10.0,15.0,99,-99.99,,,-99.99,,2013-01-29 15:43:00,
2013-01-29 10:53:00,53.0,53.0,-100.00,SSW,210,7.0,17.0,100,-99.99,,,-99.99,,2013-01-29 15:53:00,
2013-01-29 11:03:00,54.0,54.0,-100.00,SW,225,9.0,14.0,99,-99.99,,,-99.99,,2013-01-29 16:03:00,
2013-01-29 11:12:00,54.0,54.0,-100.00,SW,225,9.0,14.0,99,-99.99,,,-99.99,,2013-01-29 16:12:00,
2013-01-29 11:23:00,54.0,54.0,-100.00,SSW,210,8.0,17.0,100,-99.99,,,-99.99,,2013-01-29 16:23:00,
2013-01-29 11:32:00,55.0,54.0,-100.00,SW,220,9.0,14.0,99,-99.99,,,-99.99,,2013-01-29 16:32:00,
2013-01-29 11:43:00,54.0,54.0,-100.00,SSW,205,9.0,14.0,99,-99.99,,,-99.99,,2013-01-29 16:43:00,
2013-01-29 11:53:00,54.0,54.0,-100.00,SW,220,8.0,15.0,100,-99.99,,,-99.99,,2013-01-29 16:53:00,
2013-01-29 12:03:00,55.0,55.0,-100.00,SSW,205,7.0,12.0,99,-99.99,,,-99.99,,2013-01-29 17:03:00,
2013-01-29 12:12:00,55.0,55.0,-100.00,SW,225,7.0,14.0,99,-99.99,,,-99.99,,2013-01-29 17:12:00,
2013-01-29 12:22:00,55.0,55.0,-100.00,SW,220,9.0,16.0,99,-99.99,,,-99.99,,2013-01-29 17:22:00,
2013-01-29 12:33:00,55.0,55.0,-100.00,SSW,210,9.0,16.0,99,-99.99,,,-99.99,,2013-01-29 17:33:00,
2013-01-29 12:42:00,55.0,55.0,-100.00,SSW,210,7.0,16.0,100,-99.99,,,-99.99,,2013-01-29 17:42:00,
2013-01-29 12:52:00,55.0,55.0,-100.00,SSW,200,9.0,13.0,99,-99.99,,,-99.99,,2013-01-29 17:52:00,
2013-01-29 13:04:00,55.0,55.0,-100.00,SSW,210,9.0,17.0,99,-99.99,,,-99.99,,2013-01-29 18:04:00,
2013-01-29 13:12:00,55.0,55.0,-100.00,SW,215,12.0,16.0,99,-99.99,,,-99.99,,2013-01-29 18:12:00,
2013-01-29 13:22:00,56.0,56.0,-100.00,SSW,210,9.0,19.0,99,-99.99,,,-99.99,,2013-01-29 18:22:00,
2013-01-29 13:33:00,56.0,56.0,-100.00,SSW,205,10.0,15.0,99,-99.99,,,-99.99,,2013-01-29 18:33:00,
2013-01-29 13:42:00,56.0,56.0,-100.00,SW,220,10.0,17.0,99,-99.99,,,-99.99,,2013-01-29 18:42:00,
2013-01-29 13:52:00,56.0,56.0,-100.00,SSW,210,7.0,17.0,99,-99.99,,,-99.99,,2013-01-29 18:52:00,
2013-01-29 14:03:00,56.0,56.0,-100.00,SSW,200,9.0,17.0,99,-99.99,,,-99.99,,2013-01-29 19:03:00,
2013-01-29 14:12:00,56.0,56.0,-100.00,SSW,210,10.0,17.0,99,-99.99,,,-99.99,,2013-01-29 19:12:00,
2013-01-29 14:22:00,56.0,56.0,-100.00,SW,215,7.0,16.0,99,-99.99,,,-99.99,,2013-01-29 19:22:00,
2013-01-29 14:32:00,56.0,56.0,-100.00,SSW,205,7.0,14.0,99,-99.99,,,-99.99,,2013-01-29 19:32:00,
2013-01-29 14:42:00,57.0,57.0,-100.00,SSW,205,7.0,13.0,99,-99.99,,,-99.99,,2013-01-29 19:42:00,
2013-01-29 14:52:00,57.0,57.0,-100.00,SSW,195,9.0,14.0,99,-99.99,,,-99.99,,2013-01-29 19:52:00,
2013-01-29 15:03:00,58.0,57.0,-100.00,SSW,210,9.0,18.0,99,-99.99,,,-99.99,,2013-01-29 20:03:00,
2013-01-29 15:12:00,58.0,58.0,-100.00,SSW,200,10.0,16.0,99,-99.99,,,-99.99,,2013-01-29 20:12:00,
2013-01-29 15:22:00,58.0,58.0,-100.00,SSW,200,11.0,19.0,98,-99.99,,,-99.99,,2013-01-29 20:22:00,
2013-01-29 15:33:00,58.0,58.0,-100.00,SSW,200,7.0,16.0,98,-99.99,,,-99.99,,2013-01-29 20:33:00,
2013-01-29 15:42:00,58.0,58.0,-100.00,SSW,210,9.0,18.0,98,-99.99,,,-99.99,,2013-01-29 20:42:00,
2013-01-29 15:53:00,59.0,58.0,-100.00,SSW,200,12.0,17.0,98,-99.99,,,-99.99,,2013-01-29 20:53:00,
2013-01-29 16:03:00,59.0,58.0,-100.00,SSW,200,12.0,17.0,98,-99.99,,,-99.99,,2013-01-29 21:03:00,
2013-01-29 16:12:00,59.0,58.0,-100.00,SSW,210,9.0,17.0,98,-99.99,,,-99.99,,2013-01-29 21:12:00,
2013-01-29 16:22:00,59.0,58.0,-100.00,SSW,205,9.0,13.0,98,-99.99,,,-99.99,,2013-01-29 21:22:00,
2013-01-29 16:33:00,59.0,58.0,-100.00,SSW,195,7.0,16.0,98,-99.99,,,-99.99,,2013-01-29 21:33:00,
2013-01-29 16:42:00,59.0,58.0,-100.00,SSW,195,7.0,16.0,98,-99.99,,,-99.99,,2013-01-29 21:42:00,
2013-01-29 16:52:00,59.0,58.0,-100.00,SSW,210,9.0,16.0,98,-99.99,,,-99.99,,2013-01-29 21:52:00,
2013-01-29 17:03:00,59.0,58.0,-100.00,SSW,205,12.0,19.0,98,-99.99,,,-99.99,,2013-01-29 22:03:00,
2013-01-29 17:12:00,59.0,58.0,-100.00,SW,215,9.0,19.0,98,-99.99,,,-99.99,,2013-01-29 22:12:00,
2013-01-29 17:22:00,59.0,58.0,-100.00,SW,215,11.0,19.0,98,-99.99,,,-99.99,,2013-01-29 22:22:00,
2013-01-29 17:33:00,59.0,58.0,-100.00,SSW,200,14.0,18.0,98,-99.99,,,-99.99,,2013-01-29 22:33:00,
2013-01-29 17:42:00,59.0,58.0,-100.00,SW,215,11.0,24.0,98,-99.99,,,-99.99,,2013-01-29 22:42:00,
2013-01-29 17:52:00,59.0,58.0,-100.00,South,190,13.0,22.0,97,-99.99,,,-99.99,,2013-01-29 22:52:00,
2013-01-29 18:02:00,59.0,58.0,-100.00,SSW,205,14.0,21.0,96,-99.99,,,-99.99,,2013-01-29 23:02:00,
2013-01-29 18:12:00,59.0,58.0,-100.00,SSW,210,15.0,21.0,96,-99.99,,,-99.99,,2013-01-29 23:12:00,
2013-01-29 18:23:00,59.0,58.0,-100.00,SSW,200,11.0,24.0,96,-99.99,,,-99.99,,2013-01-29 23:23:00,
2013-01-29 18:33:00,59.0,58.0,-100.00,SSW,200,12.0,19.0,96,-99.99,,,-99.99,,2013-01-29 23:33:00,
2013-01-29 18:42:00,59.0,58.0,-100.00,SSW,205,11.0,16.0,96,-99.99,,,-99.99,,2013-01-29 23:42:00,
2013-01-29 18:52:00,59.0,58.0,-100.00,SSW,200,11.0,19.0,96,-99.99,,,-99.99,,2013-01-29 23:52:00,
2013-01-29 19:03:00,58.0,57.0,-100.00,SSW,195,12.0,18.0,96,-99.99,,,-99.99,,2013-01-30 00:03:00,
2013-01-29 19:12:00,58.0,58.0,-100.00,SSW,200,12.0,19.0,96,-99.99,,,-99.99,,2013-01-30 00:12:00,
2013-01-29 19:22:00,58.0,57.0,-100.00,SSW,200,8.0,15.0,96,-99.99,,,-99.99,,2013-01-30 00:22:00,
2013-01-29 19:32:00,58.0,57.0,-100.00,SSW,195,8.0,15.0,96,-99.99,,,-99.99,,2013-01-30 00:32:00,
2013-01-29 19:42:00,58.0,57.0,-100.00,SSW,210,7.0,14.0,96,-99.99,,,-99.99,,2013-01-30 00:42:00,
2013-01-29 19:52:00,58.0,57.0,-100.00,SSW,210,7.0,14.0,96,-99.99,,,-99.99,,2013-01-30 00:52:00,
2013-01-29 20:02:00,58.0,57.0,-100.00,SSW,195,9.0,14.0,96,-99.99,,,-99.99,,2013-01-30 01:02:00,
2013-01-29 20:12:00,58.0,57.0,-100.00,SSW,195,9.0,13.0,96,-99.99,,,-99.99,,2013-01-30 01:12:00,
2013-01-29 20:22:00,58.0,57.0,-100.00,South,190,7.0,12.0,96,-99.99,,,-99.99,,2013-01-30 01:22:00,
2013-01-29 20:32:00,58.0,57.0,-100.00,SSW,195,8.0,11.0,96,-99.99,,,-99.99,,2013-01-30 01:32:00,
2013-01-29 20:42:00,58.0,57.0,-100.00,South,185,8.0,13.0,96,-99.99,,,-99.99,,2013-01-30 01:42:00,
2013-01-29 20:52:00,58.0,57.0,-100.00,South,190,7.0,12.0,96,-99.99,,,-99.99,,2013-01-30 01:52:00,
2013-01-29 21:02:00,58.0,57.0,-100.00,South,185,7.0,12.0,96,-99.99,,,-99.99,,2013-01-30 02:02:00,
2013-01-29 21:12:00,58.0,57.0,-100.00,South,190,6.0,9.0,96,-99.99,,,-99.99,,2013-01-30 02:12:00,
2013-01-29 21:22:00,58.0,57.0,-100.00,South,190,7.0,11.0,96,-99.99,,,-99.99,,2013-01-30 02:22:00,
2013-01-29 21:33:00,57.0,56.0,-100.00,South,190,7.0,12.0,96,-99.99,,,-99.99,,2013-01-30 02:33:00,
2013-01-29 21:42:00,57.0,56.0,-100.00,South,185,8.0,11.0,96,-99.99,,,-99.99,,2013-01-30 02:42:00,
2013-01-29 21:52:00,58.0,57.0,-100.00,South,185,8.0,14.0,96,-99.99,,,-99.99,,2013-01-30 02:52:00,
2013-01-29 22:03:00,58.0,57.0,-100.00,South,185,8.0,14.0,96,-99.99,,,-99.99,,2013-01-30 03:03:00,
2013-01-29 22:12:00,57.0,56.0,-100.00,South,170,9.0,12.0,96,-99.99,,,-99.99,,2013-01-30 03:12:00,
2013-01-29 22:22:00,57.0,56.0,-100.00,South,185,8.0,12.0,96,-99.99,,,-99.99,,2013-01-30 03:22:00,
2013-01-29 22:32:00,56.0,56.0,-100.00,South,185,7.0,11.0,96,-99.99,,,-99.99,,2013-01-30 03:32:00,
2013-01-29 22:42:00,57.0,56.0,-100.00,South,185,8.0,12.0,97,-99.99,,,-99.99,,2013-01-30 03:42:00,
2013-01-29 22:52:00,56.0,56.0,-100.00,South,185,9.0,13.0,97,-99.99,,,-99.99,,2013-01-30 03:52:00,
2013-01-29 23:02:00,56.0,56.0,-100.00,South,190,10.0,14.0,97,-99.99,,,-99.99,,2013-01-30 04:02:00,
2013-01-29 23:12:00,56.0,56.0,-100.00,South,190,9.0,14.0,97,-99.99,,,-99.99,,2013-01-30 04:12:00,
2013-01-29 23:22:00,56.0,56.0,-100.00,SSW,200,9.0,12.0,97,-99.99,,,-99.99,,2013-01-30 04:22:00,
2013-01-29 23:32:00,56.0,56.0,-100.00,South,180,12.0,18.0,97,-99.99,,,-99.99,,2013-01-30 04:32:00,
2013-01-29 23:41:00,57.0,56.0,-100.00,SSW,200,11.0,14.0,97,-99.99,,,-99.99,,2013-01-30 04:41:00,
2013-01-29 23:52:00,57.0,56.0,-100.00,SSW,195,11.0,16.0,97,-99.99,,,-99.99,,2013-01-30 04:52:00,